FENGYUN 1C DEB, 31916

Orbit data source: Space-Track

FENGYUN 1C DEB, 31916 is space debris in SSO originally from a launch on Mon, 10 May 1999 UTC launched from the Taiyaun Space Center, China (TSC). Fengyun 1C debris stems from the Chinese weather satellite Fengyun-1C, which was intentionally destroyed by a Chinese anti-satellite missile in 2007. This event dramatically increased the amount of space debris, with thousands of trackable fragments posing hazards to satellites and human spaceflight. The Fengyun 1C debris cloud has become a focal point in discussions about space sustainability and the need for international regulations to prevent the creation of new debris.

Loading next visibility...
Identifier
31916, 1999-025CLT
Orbit
SSO
Country
Flag of CNCN / PRC
Related business
Manufacturer
Unknown
Mission
Spacecraft
Bus & Motor
Unknown
Mass
Unknown
Launch date (UTC)
1999-05-10 (27 years ago)
Launch vehicle
Unknown
Launch site
Taiyaun Space Center, China (TSC)
Object type
Payload
Rocket body
Debris
Shape & HBR
Unknown shape, 0.1 m
Radar Cross Section
Small (<0.1 m²)

Expand to show TLE details & history
Last TLE update: 1 week ago

TLE from 1 week ago
0 FENGYUN 1C DEB
1 31916U 99025CLT 26154.52722657  .00002884  00000-0  94133-3 0  9994
2 31916  99.3272 257.9981 0141691 316.8602  42.1546 14.33951424670026
Epoch: 2026-06-03T12:39Z
TLE epoch observation values (Epoch: 2026-06-03T12:39:12.375Z)
Latitude
-0.0001°
Longitude
176.21199°
Altitude
706.935 km
Speed
7.541 km/s
True Right ascension
17h 11m 59s
True Declination
0° 00' 00"
Sunlit
Object was in full shadow at epoch
Visualization orbit readout
Latitude
Unknown
Longitude
Unknown
Altitude
Unknown
Speed
Unknown
Apparent Right ascension
Unknown
Apparent Declination
Unknown
Sunlit
N/A
Visualization observer readout
Local Sidereal Time
01:23:00
Azimuth
Unknown
Elevation
Unknown
Doppler factor
Unknown
Orbital elements
Apogee altitude
877.087 km
Perigee altitude
674.359 km
Semi-major axis
7,153.86 km
Eccentricity
0.01417
Inclination
99.3272°
RAAN
257.9981°
Arg. of periapsis
316.8602°
True anomaly
43.25871°
Mean anomaly
42.1546°
Eccentric anomaly
42.7052°
Mean motion
3.58701 °/min
Orbital period
100.36 mins
BSTAR
0.00094133
Loading maneuver chart data...
Computing Atmospheric mass density...
Loading historical data...
Loading historical data...
Loading historical data...
Loading historical data...
Loading historical data...
Loading historical data...
Loading historical data...

Documentation

Showing up to 5 results
|